Stündliche Wetter Homichicy

Heute, 21 Juni, Montag

Zeit Temperatur Niederschläge Wind Luftdruck Luftfeuchtigkeit
00:00 +20°C° 0 mm 3 m/S 748 mmHg 91%
01:00 +19°C° 0 mm 3 m/S 747 mmHg 90%
02:00 +18°C° 0 mm 3 m/S 747 mmHg 90%
03:00 +18°C° 0 mm 3 m/S 747 mmHg 91%
04:00 +18°C° 0 mm 3 m/S 747 mmHg 92%
05:00 +18°C° 0 mm 2 m/S 747 mmHg 94%
06:00 +20°C° 0 mm 3 m/S 747 mmHg 90%
07:00 +21°C° 0 mm 4 m/S 747 mmHg 87%
08:00 +23°C° 0 mm 4 m/S 747 mmHg 84%
09:00 +25°C° 0 mm 4 m/S 747 mmHg 77%
10:00 +26°C° 0 mm 5 m/S 747 mmHg 70%
11:00 +28°C° 0 mm 5 m/S 746 mmHg 63%
12:00 +28°C° 0 mm 4 m/S 746 mmHg 62%
13:00 +28°C° 0 mm 4 m/S 746 mmHg 62%
14:00 +28°C° 0 mm 3 m/S 746 mmHg 61%
15:00 +28°C° 0.1 mm 3 m/S 746 mmHg 65%
16:00 +28°C° 0.1 mm 3 m/S 745 mmHg 69%
17:00 +27°C° 0.1 mm 2 m/S 745 mmHg 73%
18:00 +26°C° 0.1 mm 2 m/S 745 mmHg 75%
19:00 +25°C° 0.1 mm 2 m/S 745 mmHg 78%
20:00 +25°C° 0.1 mm 2 m/S 745 mmHg 80%
21:00 +24°C° 0 mm 2 m/S 745 mmHg 83%
22:00 +23°C° 0 mm 2 m/S 745 mmHg 86%
23:00 +21°C° 0 mm 2 m/S 745 mmHg 89%

Morgen, 22 Juni, Dienstag

Zeit Temperatur Niederschläge Wind Luftdruck Luftfeuchtigkeit
00:00 +20°C° 0 mm 2 m/S 745 mmHg 90%
01:00 +20°C° 0 mm 2 m/S 745 mmHg 91%
02:00 +20°C° 0 mm 2 m/S 745 mmHg 92%
03:00 +19°C° 0 mm 2 m/S 745 mmHg 93%
04:00 +19°C° 0 mm 2 m/S 745 mmHg 93%
05:00 +19°C° 0 mm 2 m/S 745 mmHg 93%
06:00 +21°C° 0 mm 3 m/S 746 mmHg 88%
07:00 +24°C° 0 mm 3 m/S 746 mmHg 83%
08:00 +25°C° 0 mm 3 m/S 746 mmHg 78%
09:00 +26°C° 0 mm 3 m/S 746 mmHg 73%
10:00 +27°C° 0 mm 4 m/S 746 mmHg 67%
11:00 +29°C° 0 mm 4 m/S 747 mmHg 62%
12:00 +29°C° 0 mm 4 m/S 747 mmHg 59%
13:00 +30°C° 0 mm 4 m/S 747 mmHg 56%
14:00 +32°C° 0 mm 4 m/S 747 mmHg 53%
15:00 +32°C° 0 mm 4 m/S 746 mmHg 55%
16:00 +31°C° 0 mm 3 m/S 746 mmHg 58%
17:00 +30°C° 0 mm 3 m/S 746 mmHg 60%
18:00 +29°C° 0 mm 2 m/S 746 mmHg 65%
19:00 +28°C° 0 mm 2 m/S 746 mmHg 70%
20:00 +26°C° 0 mm 1 m/S 746 mmHg 74%
21:00 +25°C° 0.2 mm 1 m/S 746 mmHg 77%
22:00 +24°C° 0.2 mm 1 m/S 747 mmHg 79%
23:00 +23°C° 0.2 mm 1 m/S 747 mmHg 81%

übermorgen, 23 Juni, Mittwoch

Zeit Temperatur Niederschläge Wind Luftdruck Luftfeuchtigkeit
00:00 +23°C° 0.2 mm 1 m/S 747 mmHg 83%
01:00 +23°C° 0.2 mm 1 m/S 747 mmHg 85%
02:00 +23°C° 0.2 mm 1 m/S 747 mmHg 87%
03:00 +21°C° 0.1 mm 2 m/S 747 mmHg 89%
04:00 +21°C° 0.1 mm 2 m/S 747 mmHg 90%
05:00 +21°C° 0.1 mm 2 m/S 747 mmHg 92%
06:00 +23°C° 0 mm 2 m/S 748 mmHg 88%
07:00 +24°C° 0 mm 3 m/S 748 mmHg 83%
08:00 +26°C° 0 mm 3 m/S 748 mmHg 79%
09:00 +27°C° 0 mm 3 m/S 748 mmHg 74%
10:00 +28°C° 0 mm 3 m/S 749 mmHg 69%
11:00 +29°C° 0 mm 2 m/S 749 mmHg 63%
12:00 +30°C° 0 mm 2 m/S 749 mmHg 60%
13:00 +31°C° 0 mm 2 m/S 749 mmHg 58%
14:00 +32°C° 0 mm 2 m/S 749 mmHg 55%
15:00 +32°C° 0 mm 2 m/S 749 mmHg 55%
16:00 +32°C° 0 mm 2 m/S 749 mmHg 56%
17:00 +32°C° 0 mm 1 m/S 749 mmHg 56%
18:00 +31°C° 0.1 mm 1 m/S 748 mmHg 63%
19:00 +29°C° 0.1 mm 2 m/S 748 mmHg 69%
20:00 +28°C° 0.1 mm 2 m/S 748 mmHg 75%
21:00 +26°C° 0.6 mm 1 m/S 749 mmHg 79%
22:00 +25°C° 0.6 mm 1 m/S 749 mmHg 83%
23:00 +24°C° 0.6 mm 1 m/S 749 mmHg 87%

24 Juni, Donnerstag

Zeit Temperatur Niederschläge Wind Luftdruck Luftfeuchtigkeit
00:00 +24°C° 0.2 mm 1 m/S 749 mmHg 87%
01:00 +23°C° 0.2 mm 1 m/S 749 mmHg 88%
02:00 +23°C° 0.2 mm 1 m/S 749 mmHg 89%
03:00 +23°C° 0 mm 1 m/S 749 mmHg 89%
04:00 +23°C° 0 mm 1 m/S 749 mmHg 90%
05:00 +23°C° 0 mm 2 m/S 749 mmHg 90%
06:00 +24°C° 0 mm 2 m/S 749 mmHg 87%
07:00 +26°C° 0 mm 2 m/S 749 mmHg 83%
08:00 +27°C° 0 mm 2 m/S 750 mmHg 80%
09:00 +28°C° 0 mm 2 m/S 750 mmHg 75%
10:00 +29°C° 0 mm 2 m/S 750 mmHg 71%
11:00 +30°C° 0 mm 3 m/S 750 mmHg 66%
12:00 +30°C° 0.1 mm 3 m/S 750 mmHg 63%
13:00 +31°C° 0.1 mm 3 m/S 749 mmHg 60%
14:00 +32°C° 0.1 mm 2 m/S 749 mmHg 56%
15:00 +31°C° 0 mm 2 m/S 749 mmHg 58%
16:00 +31°C° 0 mm 2 m/S 749 mmHg 60%
17:00 +31°C° 0 mm 2 m/S 749 mmHg 62%
18:00 +30°C° 0.3 mm 2 m/S 749 mmHg 68%
19:00 +28°C° 0.3 mm 2 m/S 748 mmHg 74%
20:00 +26°C° 0.3 mm 2 m/S 748 mmHg 79%
21:00 +26°C° 0.1 mm 1 m/S 748 mmHg 81%
22:00 +25°C° 0.1 mm 1 m/S 748 mmHg 82%
23:00 +24°C° 0.1 mm 1 m/S 748 mmHg 84%

25 Juni, Freitag

Zeit Temperatur Niederschläge Wind Luftdruck Luftfeuchtigkeit
00:00 +23°C° 0.2 mm 1 m/S 748 mmHg 86%
01:00 +23°C° 0.2 mm 2 m/S 748 mmHg 89%
02:00 +21°C° 0.2 mm 2 m/S 748 mmHg 91%
03:00 +21°C° 0 mm 2 m/S 747 mmHg 91%
04:00 +21°C° 0 mm 2 m/S 747 mmHg 91%
05:00 +21°C° 0 mm 2 m/S 747 mmHg 92%
06:00 +24°C° 0 mm 2 m/S 747 mmHg 86%
07:00 +25°C° 0 mm 2 m/S 747 mmHg 81%
08:00 +27°C° 0 mm 2 m/S 747 mmHg 76%
09:00 +28°C° 0 mm 3 m/S 747 mmHg 71%
10:00 +29°C° 0 mm 4 m/S 747 mmHg 65%
11:00 +32°C° 0 mm 4 m/S 746 mmHg 59%
12:00 +32°C° 0 mm 5 m/S 746 mmHg 57%
13:00 +33°C° 0 mm 5 m/S 746 mmHg 54%
14:00 +34°C° 0 mm 5 m/S 745 mmHg 51%
15:00 +33°C° 0 mm 5 m/S 745 mmHg 54%
16:00 +33°C° 0 mm 5 m/S 744 mmHg 58%
17:00 +33°C° 0 mm 6 m/S 744 mmHg 62%
18:00 +28°C° 1.7 mm 4 m/S 744 mmHg 71%
19:00 +25°C° 1.7 mm 3 m/S 744 mmHg 81%
20:00 +20°C° 1.7 mm 2 m/S 744 mmHg 90%
21:00 +20°C° 0.2 mm 2 m/S 744 mmHg 91%
22:00 +19°C° 0.2 mm 2 m/S 744 mmHg 92%
23:00 +19°C° 0.2 mm 2 m/S 744 mmHg 92%

26 Juni, Samstag

Zeit Temperatur Niederschläge Wind Luftdruck Luftfeuchtigkeit
00:00 +19°C° 0.1 mm 2 m/S 744 mmHg 94%
01:00 +18°C° 0.1 mm 2 m/S 744 mmHg 95%
02:00 +18°C° 0.1 mm 2 m/S 744 mmHg 96%
03:00 +19°C° 0 mm 2 m/S 744 mmHg 95%
04:00 +19°C° 0 mm 3 m/S 744 mmHg 94%
05:00 +19°C° 0 mm 3 m/S 744 mmHg 94%
06:00 +19°C° 0 mm 3 m/S 745 mmHg 93%
07:00 +20°C° 0 mm 3 m/S 745 mmHg 91%
08:00 +20°C° 0 mm 3 m/S 745 mmHg 90%
09:00 +21°C° 0.1 mm 4 m/S 745 mmHg 86%
10:00 +21°C° 0.1 mm 4 m/S 746 mmHg 82%
11:00 +22°C° 0.1 mm 5 m/S 746 mmHg 77%
12:00 +23°C° 0 mm 5 m/S 746 mmHg 73%
13:00 +23°C° 0 mm 5 m/S 746 mmHg 69%
14:00 +25°C° 0 mm 5 m/S 746 mmHg 65%
15:00 +25°C° 0 mm 5 m/S 746 mmHg 65%
16:00 +25°C° 0 mm 5 m/S 745 mmHg 65%
17:00 +25°C° 0 mm 5 m/S 745 mmHg 65%
18:00 +23°C° 0 mm 4 m/S 745 mmHg 69%
19:00 +22°C° 0 mm 3 m/S 745 mmHg 74%
20:00 +21°C° 0 mm 2 m/S 745 mmHg 78%
21:00 +20°C° 0 mm 2 m/S 745 mmHg 80%
22:00 +19°C° 0 mm 2 m/S 745 mmHg 82%
23:00 +18°C° 0 mm 3 m/S 745 mmHg 84%
Mehr zeigen

Wir brauchen deine Erlaubnis

Meteoprog und unser Service Anbieter werden persönliche Daten aufbewahren, so wie Cookies, Geräte Bezeichnung oder ähnliche Technologien von deinem Gerät und Prozess, so wie Persönliche Daten Inhalte und Werbungen, genauso wie social Media und den Verkehr zu analysieren.

  • Aufbewahrung und/oder Zugang zu deiner Geräte Informationen.

    Cookies, Geräte Bezeichnung oder andere Informationen, können aufbewahrt oder Zugang zu deinem Gerät erhalten, für den Grund, der oben angegeben wird.

  • Personalisierte Werbung und Inhalte, Messungen, Einblick in das Publikum und Produkt Entwicklung.

    Werbungen und Inhalte können personalisiert werden, basierend auf ein Profil. Mehr Daten können besser personalisierte Werbungen und Inhalte hinzufügen. Werbung und Inhalte können gezeigt und gemessen werden. Einblicke über das Publikum, welche die Werbung gesehen haben und den Inhalt, können abgeleitet werden. So wie Daten können genutzt werden, um es zu verbessern oder die Benutzer Erfahrung zu verbessern das System und die Software.

Wenn du “Ich stimme zu” klickst, erlaubst du uns, die Cookies zu benutzen die Geräte Bezeichnung, den Web oder ähnliche Technologien zu benutzen. Deine Settings, können in deinem Gerät bei deinem Browser geändert werden.

Für den bestimmten Zweck, berechtigten Interessen beruhen darauf, mehr als auf den Inhalt. Du kannst mehr darüber in unseren Privaten und Cookie Politik lesen.